TimePST,TemperatureF,Dew PointF,Humidity,Sea Level PressureIn,VisibilityMPH,Wind Direction,Wind SpeedMPH,Gust SpeedMPH,PrecipitationIn,Events,Conditions,WindDirDegrees,DateUTC
12:03 AM,30.2,30.2,100,30.21,3.0,East,1.2,-,N/A,,Clear,100,2013-11-24 08:03:00
12:08 AM,28.4,28.4,100,30.20,1.5,ESE,2.3,-,N/A,,Clear,120,2013-11-24 08:08:00
12:13 AM,28.4,28.4,100,30.20,0.8,ESE,2.3,-,N/A,,Clear,120,2013-11-24 08:13:00
12:18 AM,28.4,26.6,93,30.20,1.2,SE,3.5,-,N/A,,Clear,140,2013-11-24 08:18:00
12:23 AM,26.6,26.6,100,30.19,4.0,ESE,2.3,-,N/A,,Clear,120,2013-11-24 08:23:00
12:33 AM,26.6,26.6,100,30.19,2.5,Calm,Calm,-,N/A,,Clear,0,2013-11-24 08:33:00
12:38 AM,26.6,26.6,100,30.19,2.5,ESE,1.2,-,N/A,,Clear,110,2013-11-24 08:38:00
12:43 AM,26.6,26.6,100,30.19,3.0,SE,1.2,-,N/A,,Clear,130,2013-11-24 08:43:00
12:58 AM,26.8,26.4,99,30.21,10.0,Calm,Calm,-,N/A,,Clear,0,2013-11-24 08:58:00
1:38 AM,26.6,26.6,100,30.19,1.0,SSE,2.3,-,N/A,,Clear,160,2013-11-24 09:38:00
1:43 AM,24.8,24.8,100,30.19,0.8,SSE,2.3,-,N/A,,Clear,150,2013-11-24 09:43:00
1:48 AM,24.8,24.8,100,30.19,1.5,SSE,2.3,-,N/A,,Clear,150,2013-11-24 09:48:00
1:53 AM,26.6,26.6,100,30.19,2.0,SSE,2.3,-,N/A,,Clear,150,2013-11-24 09:53:00
1:58 AM,26.8,26.4,99,30.21,2.0,Calm,Calm,-,N/A,,Clear,0,2013-11-24 09:58:00
2:03 AM,26.6,26.6,100,30.19,3.0,Calm,Calm,-,N/A,,Clear,0,2013-11-24 10:03:00
2:08 AM,28.4,26.6,93,30.19,2.5,SE,1.2,-,N/A,,Clear,140,2013-11-24 10:08:00
2:09 AM,28.4,26.6,93,30.19,10.0,SSE,2.3,-,N/A,,Overcast,150,2013-11-24 10:09:00
2:39 AM,26.6,26.6,100,30.19,10.0,Calm,Calm,-,N/A,,Mostly Cloudy,0,2013-11-24 10:39:00
2:54 AM,26.6,26.6,100,30.19,1.2,Calm,Calm,-,N/A,,Mostly Cloudy,0,2013-11-24 10:54:00
2:58 AM,26.6,26.6,100,30.21,0.8,NNE,1.2,-,N/A,,Mist,30,2013-11-24 10:58:00
3:03 AM,28.4,26.6,93,30.18,0.8,Calm,Calm,-,N/A,,Overcast,0,2013-11-24 11:03:00
3:08 AM,28.4,26.6,93,30.18,2.0,Calm,Calm,-,N/A,,Overcast,0,2013-11-24 11:08:00
3:13 AM,26.6,26.6,100,30.18,9.0,Calm,Calm,-,N/A,,Overcast,0,2013-11-24 11:13:00
3:23 AM,26.6,26.6,100,30.18,1.2,Calm,Calm,-,N/A,,Overcast,0,2013-11-24 11:23:00
3:28 AM,26.6,26.6,100,30.17,0.8,SSW,2.3,-,N/A,,Mist,200,2013-11-24 11:28:00
3:29 AM,26.6,26.6,100,30.18,0.8,SSW,2.3,-,N/A,,Light Freezing Drizzle,200,2013-11-24 11:29:00
3:34 AM,26.6,26.6,100,30.17,0.5,South,2.3,-,N/A,Fog,Light Freezing Drizzle,190,2013-11-24 11:34:00
3:39 AM,26.6,26.6,100,30.17,0.2,South,2.3,-,N/A,Fog,Light Freezing Drizzle,180,2013-11-24 11:39:00
3:44 AM,28.4,26.6,93,30.17,0.2,Calm,Calm,-,N/A,Fog,Light Freezing Drizzle,0,2013-11-24 11:44:00
3:54 AM,26.6,26.6,100,30.17,0.5,Calm,Calm,-,N/A,Fog,Light Freezing Drizzle,0,2013-11-24 11:54:00
3:58 AM,27.1,27.0,99,30.19,0.5,Calm,Calm,-,0.00,Fog,Light Freezing Drizzle,0,2013-11-24 11:58:00
4:13 AM,26.6,26.6,100,30.17,0.5,SSW,1.2,-,N/A,Fog,Light Freezing Drizzle,200,2013-11-24 12:13:00
4:18 AM,26.6,26.6,100,30.17,0.5,SSW,2.3,-,N/A,Fog,Light Freezing Drizzle,200,2013-11-24 12:18:00
4:23 AM,26.6,26.6,100,30.17,0.8,SSW,3.5,-,N/A,,Light Freezing Drizzle,200,2013-11-24 12:23:00
4:28 AM,26.6,26.6,100,30.17,1.0,South,2.3,-,N/A,,Light Freezing Drizzle,180,2013-11-24 12:28:00
4:38 AM,26.6,26.6,100,30.17,0.8,South,2.3,-,N/A,,Light Freezing Drizzle,190,2013-11-24 12:38:00
4:39 AM,26.6,26.6,100,30.17,0.8,South,2.3,-,N/A,,Mist,190,2013-11-24 12:39:00
4:44 AM,26.6,26.6,100,30.17,0.5,SSW,2.3,-,N/A,Fog,Light Freezing Fog,200,2013-11-24 12:44:00
4:54 AM,26.6,26.6,100,30.18,0.5,SW,2.3,-,N/A,Fog,Light Freezing Fog,220,2013-11-24 12:54:00
4:58 AM,27.5,27.1,99,30.20,0.5,SW,2.3,-,0.00,Fog,Light Freezing Fog,220,2013-11-24 12:58:00
5:03 AM,26.6,26.6,100,30.18,0.8,SW,2.3,-,N/A,,Mist,220,2013-11-24 13:03:00
5:08 AM,26.6,26.6,100,30.18,0.5,WSW,2.3,-,N/A,Fog,Light Freezing Fog,240,2013-11-24 13:08:00
5:13 AM,26.6,26.6,100,30.18,0.5,SSW,2.3,-,N/A,Fog,Light Freezing Fog,200,2013-11-24 13:13:00
5:17 AM,26.6,26.6,100,30.17,0.5,South,4.6,-,N/A,Fog,Light Freezing Fog,180,2013-11-24 13:17:00
5:21 AM,26.6,26.6,100,30.18,0.5,South,4.6,-,N/A,Fog,Light Freezing Drizzle,180,2013-11-24 13:21:00
5:26 AM,26.6,26.6,100,30.18,0.8,South,3.5,-,N/A,,Mist,180,2013-11-24 13:26:00
5:35 AM,28.4,28.4,100,30.17,0.8,South,3.5,-,N/A,,Mist,180,2013-11-24 13:35:00
5:40 AM,28.4,28.4,100,30.17,0.5,South,3.5,-,N/A,Fog,Light Freezing Fog,180,2013-11-24 13:40:00
5:45 AM,28.4,28.4,100,30.17,0.2,South,3.5,-,N/A,Fog,Light Freezing Drizzle,180,2013-11-24 13:45:00
5:46 AM,28.4,28.4,100,30.17,0.2,South,3.5,-,N/A,Fog,Light Freezing Fog,180,2013-11-24 13:46:00
5:47 AM,28.4,28.4,100,30.18,0.2,South,3.5,-,N/A,Fog,Light Freezing Fog,180,2013-11-24 13:47:00
5:50 AM,28.4,28.4,100,30.18,0.2,South,2.3,-,N/A,Fog,Light Freezing Fog,180,2013-11-24 13:50:00
5:58 AM,27.9,27.7,99,30.19,0.2,SSE,3.5,-,0.00,Fog,Light Freezing Drizzle,160,2013-11-24 13:58:00
6:03 AM,28.4,26.6,93,30.17,0.5,South,3.5,-,N/A,Fog,Light Freezing Fog,170,2013-11-24 14:03:00
6:08 AM,28.4,26.6,93,30.17,1.0,South,2.3,-,N/A,,Mist,170,2013-11-24 14:08:00
6:11 AM,28.4,26.6,93,30.18,1.5,East,1.2,-,N/A,,Overcast,80,2013-11-24 14:11:00
6:12 AM,28.4,26.6,93,30.17,1.5,East,1.2,-,N/A,,Overcast,90,2013-11-24 14:12:00
6:13 AM,28.4,26.6,93,30.18,2.0,Calm,Calm,-,N/A,,Overcast,0,2013-11-24 14:13:00
6:18 AM,26.6,26.6,100,30.18,3.0,Calm,Calm,-,N/A,,Overcast,0,2013-11-24 14:18:00
6:23 AM,28.4,26.6,93,30.18,1.8,Calm,Calm,-,N/A,,Overcast,0,2013-11-24 14:23:00
6:27 AM,28.4,26.6,93,30.18,1.0,Calm,Calm,-,N/A,,Overcast,0,2013-11-24 14:27:00
6:28 AM,28.4,26.6,93,30.17,1.0,Calm,Calm,-,N/A,,Overcast,0,2013-11-24 14:28:00
6:29 AM,28.4,26.6,93,30.18,0.8,Calm,Calm,-,N/A,,Overcast,0,2013-11-24 14:29:00
6:34 AM,28.4,26.6,93,30.18,0.5,Calm,Calm,-,N/A,Fog,Light Freezing Fog,0,2013-11-24 14:34:00
6:39 AM,28.4,26.6,93,30.18,0.5,Calm,Calm,-,N/A,Fog,Light Freezing Fog,0,2013-11-24 14:39:00
6:44 AM,26.6,26.6,100,30.18,0.2,SSE,2.3,-,N/A,Fog,Light Freezing Fog,160,2013-11-24 14:44:00
6:47 AM,26.6,26.6,100,30.18,0.2,SSE,2.3,-,N/A,Fog,Light Freezing Fog,160,2013-11-24 14:47:00
6:51 AM,26.6,26.6,100,30.18,0.2,Calm,Calm,-,N/A,Fog,Light Freezing Fog,0,2013-11-24 14:51:00
6:52 AM,26.6,26.6,100,30.18,0.5,Calm,Calm,-,N/A,Fog,Light Freezing Fog,0,2013-11-24 14:52:00
6:53 AM,26.6,26.6,100,30.17,0.5,Calm,Calm,-,N/A,Fog,Light Freezing Fog,0,2013-11-24 14:53:00
6:54 AM,26.6,26.6,100,30.18,0.5,Calm,Calm,-,N/A,Fog,Light Freezing Fog,0,2013-11-24 14:54:00
6:58 AM,27.3,27.1,99,30.20,1.0,Calm,Calm,-,0.00,,Mist,0,2013-11-24 14:58:00
7:03 AM,26.6,26.6,100,30.18,4.0,Calm,Calm,-,N/A,,Overcast,0,2013-11-24 15:03:00
7:10 AM,26.6,26.6,100,30.18,0.8,Calm,Calm,-,N/A,,Overcast,0,2013-11-24 15:10:00
7:18 AM,26.6,26.6,100,30.18,0.8,Calm,Calm,-,N/A,,Overcast,0,2013-11-24 15:18:00
7:20 AM,26.6,26.6,100,30.18,0.8,Calm,Calm,-,N/A,,Overcast,0,2013-11-24 15:20:00
7:21 AM,26.6,26.6,100,30.18,0.8,Calm,Calm,-,N/A,,Overcast,0,2013-11-24 15:21:00
7:22 AM,26.6,26.6,100,30.18,0.8,Calm,Calm,-,N/A,,Overcast,0,2013-11-24 15:22:00
7:28 AM,26.6,26.6,100,30.19,0.8,Calm,Calm,-,N/A,,Overcast,0,2013-11-24 15:28:00
7:33 AM,26.6,26.6,100,30.19,0.5,Calm,Calm,-,N/A,Fog,Light Freezing Fog,0,2013-11-24 15:33:00
7:38 AM,26.6,26.6,100,30.18,0.2,Calm,Calm,-,N/A,Fog,Light Freezing Fog,0,2013-11-24 15:38:00
7:43 AM,26.6,26.6,100,30.19,0.2,Calm,Calm,-,N/A,Fog,Light Freezing Fog,0,2013-11-24 15:43:00
7:53 AM,26.6,26.6,100,30.19,0.2,SSW,2.3,-,N/A,Fog,Light Freezing Fog,210,2013-11-24 15:53:00
7:58 AM,27.3,27.1,99,30.22,0.2,SSW,2.3,-,0.00,Fog,Light Freezing Fog,200,2013-11-24 15:58:00
7:59 AM,26.6,26.6,100,30.19,0.2,SSW,2.3,-,N/A,Fog,Light Freezing Fog,200,2013-11-24 15:59:00
8:04 AM,28.4,26.6,93,30.19,0.2,South,2.3,-,N/A,Fog,Light Freezing Fog,190,2013-11-24 16:04:00
8:34 AM,28.4,28.4,100,30.20,0.5,Calm,Calm,-,N/A,Fog,Light Freezing Fog,0,2013-11-24 16:34:00
8:58 AM,30.2,30.2,100,30.24,0.5,Calm,Calm,-,0.00,Fog,Light Freezing Fog,0,2013-11-24 16:58:00
9:08 AM,32.0,30.2,93,30.21,0.5,South,2.3,-,N/A,Fog,Light Freezing Fog,180,2013-11-24 17:08:00
9:23 AM,32.0,32.0,100,30.21,0.2,South,2.3,-,N/A,Fog,Light Freezing Fog,170,2013-11-24 17:23:00
9:48 AM,32.0,32.0,100,30.21,0.2,Calm,Calm,-,N/A,Fog,Light Freezing Fog,0,2013-11-24 17:48:00
9:53 AM,32.0,32.0,100,30.21,0.2,SSE,2.3,-,N/A,Fog,Fog,160,2013-11-24 17:53:00
9:54 AM,32.0,32.0,100,30.21,0.2,South,2.3,-,N/A,Fog,Fog,170,2013-11-24 17:54:00
9:55 AM,32.0,32.0,100,30.21,0.2,South,2.3,-,N/A,Fog,Fog,180,2013-11-24 17:55:00
9:56 AM,32.0,32.0,100,30.21,0.2,South,2.3,-,N/A,Fog,Fog,180,2013-11-24 17:56:00
9:58 AM,32.2,32.0,99,30.24,0.2,South,2.3,-,0.00,Fog,Fog,170,2013-11-24 17:58:00
9:59 AM,32.0,32.0,100,30.21,0.2,South,2.3,-,N/A,Fog,Fog,170,2013-11-24 17:59:00
10:00 AM,32.0,32.0,100,30.21,0.2,South,2.3,-,N/A,Fog,Fog,170,2013-11-24 18:00:00
10:02 AM,32.0,32.0,100,30.21,0.2,South,1.2,-,N/A,Fog,Fog,180,2013-11-24 18:02:00
10:05 AM,32.0,32.0,100,30.21,0.2,SSW,2.3,-,N/A,Fog,Fog,210,2013-11-24 18:05:00
10:38 AM,35.6,35.6,100,30.22,0.2,Calm,Calm,-,N/A,Fog,Fog,0,2013-11-24 18:38:00
10:43 AM,35.6,35.6,100,30.22,0.2,Variable,3.5,-,N/A,Fog,Fog,0,2013-11-24 18:43:00
10:48 AM,35.6,35.6,100,30.22,0.2,Calm,Calm,-,N/A,Fog,Fog,0,2013-11-24 18:48:00
10:53 AM,35.6,35.6,100,30.22,0.2,Calm,Calm,-,N/A,Fog,Fog,0,2013-11-24 18:53:00
10:58 AM,36.1,35.8,99,30.25,0.2,West,2.3,-,0.00,Fog,Fog,270,2013-11-24 18:58:00
11:08 AM,35.6,35.6,100,30.21,0.2,Calm,Calm,-,N/A,Fog,Fog,0,2013-11-24 19:08:00
11:13 AM,35.6,35.6,100,30.21,0.2,Calm,Calm,-,N/A,Fog,Fog,0,2013-11-24 19:13:00
11:23 AM,37.4,37.4,100,30.21,0.2,Calm,Calm,-,N/A,Fog,Fog,0,2013-11-24 19:23:00
11:33 AM,37.4,37.4,100,30.21,0.2,Calm,Calm,-,N/A,Fog,Fog,0,2013-11-24 19:33:00
11:43 AM,37.4,37.4,100,30.20,0.2,SW,1.2,-,N/A,Fog,Fog,230,2013-11-24 19:43:00
11:48 AM,37.4,37.4,100,30.20,0.2,Calm,Calm,-,N/A,Fog,Fog,0,2013-11-24 19:48:00
11:53 AM,37.4,37.4,100,30.20,0.5,SW,1.2,-,N/A,Fog,Fog,220,2013-11-24 19:53:00
11:58 AM,37.4,37.4,100,30.22,0.5,SW,2.3,-,N/A,Fog,Fog,220,2013-11-24 19:58:00
12:03 PM,39.2,39.2,100,30.20,1.2,West,2.3,-,N/A,,Overcast,280,2013-11-24 20:03:00
12:08 PM,39.2,39.2,100,30.20,2.5,NW,1.2,-,N/A,,Overcast,320,2013-11-24 20:08:00
12:18 PM,39.2,39.2,100,30.20,4.0,Variable,2.3,-,N/A,,Overcast,0,2013-11-24 20:18:00
12:53 PM,41.0,41.0,100,30.20,10.0,NNW,2.3,-,N/A,,Scattered Clouds,340,2013-11-24 20:53:00
12:58 PM,41.9,41.9,100,30.22,10.0,North,3.5,-,N/A,,Partly Cloudy,360,2013-11-24 20:58:00
1:58 PM,44.8,44.8,100,30.21,10.0,Calm,Calm,-,N/A,,Clear,0,2013-11-24 21:58:00
2:58 PM,46.9,41.0,80,30.21,10.0,Variable,1.2,-,N/A,,Clear,0,2013-11-24 22:58:00
3:58 PM,45.9,39.9,80,30.22,10.0,Calm,Calm,-,N/A,,Clear,0,2013-11-24 23:58:00
4:58 PM,36.7,36.3,99,30.22,10.0,SSE,1.2,-,N/A,,Mostly Cloudy,160,2013-11-25 00:58:00
5:48 PM,33.8,33.8,100,30.22,2.5,SSW,2.3,-,N/A,,Clear,200,2013-11-25 01:48:00
5:53 PM,32.0,32.0,100,30.22,2.5,South,1.2,-,N/A,,Clear,170,2013-11-25 01:53:00
5:58 PM,32.5,32.2,99,30.25,4.0,South,1.2,-,N/A,,Clear,170,2013-11-25 01:58:00
6:03 PM,32.0,32.0,100,30.22,2.5,South,1.2,-,N/A,,Partly Cloudy,170,2013-11-25 02:03:00
6:08 PM,32.0,32.0,100,30.22,1.5,South,1.2,-,N/A,,Partly Cloudy,170,2013-11-25 02:08:00
6:13 PM,32.0,32.0,100,30.22,1.0,SSE,1.2,-,N/A,,Clear,150,2013-11-25 02:13:00
6:18 PM,33.8,32.0,93,30.22,1.2,SE,1.2,-,N/A,,Clear,130,2013-11-25 02:18:00
6:23 PM,33.8,32.0,93,30.22,2.5,ENE,1.2,-,N/A,,Clear,70,2013-11-25 02:23:00
6:28 PM,32.0,32.0,100,30.23,7.0,Calm,Calm,-,N/A,,Partly Cloudy,0,2013-11-25 02:28:00
6:53 PM,32.0,32.0,100,30.24,1.5,South,2.3,-,N/A,,Mostly Cloudy,190,2013-11-25 02:53:00
6:58 PM,32.0,32.0,100,30.27,1.2,South,2.3,-,N/A,,Overcast,170,2013-11-25 02:58:00
7:03 PM,32.0,32.0,100,30.24,2.5,Calm,Calm,-,N/A,,Overcast,0,2013-11-25 03:03:00
7:08 PM,32.0,32.0,100,30.24,6.0,Calm,Calm,-,N/A,,Overcast,0,2013-11-25 03:08:00
7:58 PM,31.6,31.5,99,30.27,8.0,SSW,1.2,-,N/A,,Overcast,200,2013-11-25 03:58:00
8:58 PM,33.3,32.9,99,30.27,9.0,South,3.5,-,N/A,,Overcast,190,2013-11-25 04:58:00
9:58 PM,32.0,31.8,99,30.27,10.0,Calm,Calm,-,N/A,,Mostly Cloudy,0,2013-11-25 05:58:00
10:58 PM,30.6,30.2,99,30.27,7.0,Calm,Calm,-,N/A,,Scattered Clouds,0,2013-11-25 06:58:00
11:48 PM,30.2,30.2,100,30.26,1.8,South,2.3,-,N/A,,Scattered Clouds,170,2013-11-25 07:48:00
11:53 PM,30.2,28.4,93,30.25,1.5,SE,1.2,-,N/A,,Mostly Cloudy,130,2013-11-25 07:53:00
11:58 PM,30.2,28.4,93,30.27,4.0,Calm,Calm,-,N/A,,Mostly Cloudy,0,2013-11-25 07:58:00